Zurück zum Katalog

ONEWEB-0594

AktivKommunikationPO
NORAD 54660·PAYLOAD·🇬🇧 United Kingdom

Gestartet Dec 8, 2022 von Cape Canaveral Space Force Station

Loading…

Nächste Überflüge (nächste 24 Stunden)

TLE

AktuellSource: CelesTrak SupGP

Epoche: Sep 14, 2026, 13:09 UTC

1 54660C 22166U   26257.54841852 -.00001262  00000+0 -30586-2 0  2570
2 54660  87.9273 226.2014 0002066  78.5172  31.5434 13.21829264    19

Verfolge ONEWEB-0594 in Echtzeit mit AllMySat

Download on the App Store